TimeEDT,TemperatureF,Dew PointF,Humidity,Sea Level PressureIn,VisibilityMPH,Wind Direction,Wind SpeedMPH,Gust SpeedMPH,PrecipitationIn,Events,Conditions,WindDirDegrees,DateUTC
12:53 AM,71.1,70.0,96,29.92,10.0,Calm,Calm,-,N/A,,Clear,0,2012-05-09 04:53:00
1:53 AM,71.1,70.0,96,29.91,8.0,Calm,Calm,-,N/A,,Clear,0,2012-05-09 05:53:00
2:53 AM,71.1,70.0,96,29.89,10.0,Calm,Calm,-,N/A,,Clear,0,2012-05-09 06:53:00
3:53 AM,71.1,70.0,96,29.88,10.0,Calm,Calm,-,N/A,,Clear,0,2012-05-09 07:53:00
4:53 AM,70.0,69.1,97,29.89,8.0,Calm,Calm,-,N/A,,Partly Cloudy,0,2012-05-09 08:53:00
5:53 AM,71.1,70.0,96,29.90,8.0,Calm,Calm,-,N/A,,Partly Cloudy,0,2012-05-09 09:53:00
6:53 AM,71.1,70.0,96,29.91,9.0,Calm,Calm,-,N/A,,Scattered Clouds,0,2012-05-09 10:53:00
7:53 AM,73.9,72.0,93,29.92,10.0,Calm,Calm,-,N/A,,Partly Cloudy,0,2012-05-09 11:53:00
8:53 AM,78.1,72.0,81,29.92,10.0,SSW,6.9,-,N/A,,Partly Cloudy,210,2012-05-09 12:53:00
9:53 AM,80.1,70.0,71,29.91,10.0,SSW,9.2,-,N/A,,Scattered Clouds,200,2012-05-09 13:53:00
10:53 AM,82.0,68.0,62,29.92,10.0,WSW,6.9,-,N/A,,Scattered Clouds,240,2012-05-09 14:53:00
11:53 AM,84.9,69.1,59,29.90,10.0,SSW,6.9,-,N/A,,Scattered Clouds,200,2012-05-09 15:53:00
12:53 PM,82.9,72.0,69,29.88,10.0,SE,16.1,-,N/A,,Overcast,130,2012-05-09 16:53:00
1:53 PM,84.9,73.0,67,29.87,10.0,SE,15.0,-,N/A,,Mostly Cloudy,140,2012-05-09 17:53:00
2:53 PM,77.0,72.0,84,29.88,0.8,WSW,26.5,39.1,N/A,Rain-Thunderstorm,Heavy Thunderstorms and Rain,250,2012-05-09 18:53:00
3:09 PM,73.4,69.8,88,29.87,4.0,SW,5.8,-,0.71,Rain-Thunderstorm,Light Thunderstorms and Rain,220,2012-05-09 19:09:00
3:39 PM,75.2,71.6,89,29.86,8.0,South,15.0,19.6,0.74,Rain,Light Rain,170,2012-05-09 19:39:00
3:53 PM,73.9,70.0,87,29.85,10.0,South,10.4,-,0.74,,Mostly Cloudy,170,2012-05-09 19:53:00
4:53 PM,78.1,69.1,74,29.82,10.0,SSE,11.5,21.9,N/A,,Scattered Clouds,160,2012-05-09 20:53:00
5:53 PM,81.0,69.1,67,29.81,10.0,South,8.1,-,N/A,,Scattered Clouds,180,2012-05-09 21:53:00
6:53 PM,81.0,66.9,62,29.81,10.0,South,6.9,-,N/A,,Partly Cloudy,180,2012-05-09 22:53:00
7:53 PM,79.0,68.0,69,29.81,10.0,SSW,4.6,-,N/A,,Partly Cloudy,200,2012-05-09 23:53:00
8:53 PM,78.8,69.8,74,29.83,10.0,South,4.6,-,N/A,,Partly Cloudy,190,2012-05-10 00:53:00
9:53 PM,78.8,69.8,74,29.86,10.0,Calm,Calm,-,N/A,,Partly Cloudy,0,2012-05-10 01:53:00
10:53 PM,77.0,71.1,82,29.87,10.0,SW,5.8,-,N/A,,Partly Cloudy,230,2012-05-10 02:53:00
11:53 PM,77.0,72.0,84,29.86,9.0,SW,5.8,-,N/A,,Clear,230,2012-05-10 03:53:00